owner,sensor,date,latitude,longitude,vertical_datum,sea_water_temperature,qcFlag 
TABS,ioos:station:wmo:42049:1,2008-10-01T00:00:00Z,28.3507,-96.0058,-2.0,26.06,11111222 
TABS,ioos:station:wmo:42049:1,2008-10-01T00:30:00Z,28.3507,-96.0058,-2.0,26.02,11111222 
TABS,ioos:station:wmo:42049:1,2008-10-01T01:00:00Z,28.3507,-96.0058,-2.0,26.07,11111222 
TABS,ioos:station:wmo:42049:1,2008-10-01T01:30:00Z,28.3507,-96.0058,-2.0,26.11,11111222 
TABS,ioos:station:wmo:42049:1,2008-10-01T02:00:00Z,28.3507,-96.0058,-2.0,26.01,11111222 
TABS,ioos:station:wmo:42049:1,2008-10-01T02:30:00Z,28.3507,-96.0058,-2.0,26.02,11111222 
TABS,ioos:station:wmo:42049:1,2008-10-01T03:00:00Z,28.3507,-96.0058,-2.0,26.0,11111222 
TABS,ioos:station:wmo:42049:1,2008-10-01T03:30:00Z,28.3507,-96.0058,-2.0,25.99,11111222 
TABS,ioos:station:wmo:42049:1,2008-10-01T04:00:00Z,28.3507,-96.0058,-2.0,26.02,11111222 
TABS,ioos:station:wmo:42049:1,2008-10-01T04:30:00Z,28.3507,-96.0058,-2.0,26.01,11111222 
TABS,ioos:station:wmo:42049:1,2008-10-01T05:00:00Z,28.3507,-96.0058,-2.0,25.98,11111222 
TABS,ioos:station:wmo:42049:1,2008-10-01T05:30:00Z,28.3507,-96.0058,-2.0,25.94,11111222 
TABS,ioos:station:wmo:42049:1,2008-10-01T06:00:00Z,28.3507,-96.0058,-2.0,25.92,11111222 
TABS,ioos:station:wmo:42049:1,2008-10-01T06:30:00Z,28.3507,-96.0058,-2.0,25.93,11111222 
TABS,ioos:station:wmo:42049:1,2008-10-01T07:00:00Z,28.3507,-96.0058,-2.0,25.9,11111222 
TABS,ioos:station:wmo:42049:1,2008-10-01T07:30:00Z,28.3507,-96.0058,-2.0,25.89,11111222 
TABS,ioos:station:wmo:42049:1,2008-10-01T08:00:00Z,28.3507,-96.0058,-2.0,25.9,11111222 
TABS,ioos:station:wmo:42049:1,2008-10-01T08:30:00Z,28.3507,-96.0058,-2.0,25.97,11111222 
TABS,ioos:station:wmo:42049:1,2008-10-01T09:00:00Z,28.3507,-96.0058,-2.0,25.92,11111222 
TABS,ioos:station:wmo:42049:1,2008-10-01T09:30:00Z,28.3507,-96.0058,-2.0,25.87,11111222 
TABS,ioos:station:wmo:42049:1,2008-10-01T10:00:00Z,28.3507,-96.0058,-2.0,25.84,11111222 
TABS,ioos:station:wmo:42049:1,2008-10-01T10:30:00Z,28.3507,-96.0058,-2.0,25.84,11111222 
TABS,ioos:station:wmo:42049:1,2008-10-01T11:00:00Z,28.3507,-96.0058,-2.0,25.86,11111222 
TABS,ioos:station:wmo:42049:1,2008-10-01T11:30:00Z,28.3507,-96.0058,-2.0,25.89,11111222 
TABS,ioos:station:wmo:42049:1,2008-10-01T12:00:00Z,28.3507,-96.0058,-2.0,25.84,11111222 
TABS,ioos:station:wmo:42049:1,2008-10-01T12:30:00Z,28.3507,-96.0058,-2.0,25.69,11111222 
TABS,ioos:station:wmo:42049:1,2008-10-01T13:00:00Z,28.3507,-96.0058,-2.0,25.79,11111222 
TABS,ioos:station:wmo:42049:1,2008-10-01T13:30:00Z,28.3507,-96.0058,-2.0,25.89,11111222 
TABS,ioos:station:wmo:42049:1,2008-10-01T14:00:00Z,28.3507,-96.0058,-2.0,25.93,11111222 
TABS,ioos:station:wmo:42049:1,2008-10-01T14:30:00Z,28.3507,-96.0058,-2.0,25.95,11111222 
TABS,ioos:station:wmo:42049:1,2008-10-01T15:00:00Z,28.3507,-96.0058,-2.0,25.97,11111222 
TABS,ioos:station:wmo:42049:1,2008-10-01T15:30:00Z,28.3507,-96.0058,-2.0,25.99,11111222 
TABS,ioos:station:wmo:42049:1,2008-10-01T16:00:00Z,28.3507,-96.0058,-2.0,26.04,11111222 
TABS,ioos:station:wmo:42049:1,2008-10-01T16:30:00Z,28.3507,-96.0058,-2.0,26.12,11111222 
TABS,ioos:station:wmo:42049:1,2008-10-01T17:00:00Z,28.3507,-96.0058,-2.0,26.2,11111222 
TABS,ioos:station:wmo:42049:1,2008-10-01T17:30:00Z,28.3507,-96.0058,-2.0,26.23,11111222 
TABS,ioos:station:wmo:42049:1,2008-10-01T18:00:00Z,28.3507,-96.0058,-2.0,26.31,11111222 
TABS,ioos:station:wmo:42049:1,2008-10-01T18:30:00Z,28.3507,-96.0058,-2.0,26.32,11111222 
TABS,ioos:station:wmo:42049:1,2008-10-01T19:00:00Z,28.3507,-96.0058,-2.0,26.32,11111222 
TABS,ioos:station:wmo:42049:1,2008-10-01T19:30:00Z,28.3507,-96.0058,-2.0,26.56,11111222 
TABS,ioos:station:wmo:42049:1,2008-10-01T20:00:00Z,28.3507,-96.0058,-2.0,26.49,11111222 
TABS,ioos:station:wmo:42049:1,2008-10-01T20:30:00Z,28.3507,-96.0058,-2.0,26.45,11111222 
TABS,ioos:station:wmo:42049:1,2008-10-01T21:00:00Z,28.3507,-96.0058,-2.0,26.38,11111222 
TABS,ioos:station:wmo:42049:1,2008-10-01T21:30:00Z,28.3507,-96.0058,-2.0,26.37,11111222 
TABS,ioos:station:wmo:42049:1,2008-10-01T22:00:00Z,28.3507,-96.0058,-2.0,26.4,11111222 
TABS,ioos:station:wmo:42049:1,2008-10-01T22:30:00Z,28.3507,-96.0058,-2.0,26.38,11111222 
TABS,ioos:station:wmo:42049:1,2008-10-01T23:00:00Z,28.3507,-96.0058,-2.0,26.43,11111222 
TABS,ioos:station:wmo:42049:1,2008-10-01T23:30:00Z,28.3507,-96.0058,-2.0,26.48,11111222 
TABS,ioos:station:wmo:42049:1,2008-10-02T00:00:00Z,28.3507,-96.0058,-2.0,26.41,11111222 
TABS,ioos:station:wmo:42049:1,2008-10-02T00:30:00Z,28.3507,-96.0058,-2.0,26.37,11111222 
TABS,ioos:station:wmo:42049:1,2008-10-02T01:00:00Z,28.3507,-96.0058,-2.0,26.35,11111222 
TABS,ioos:station:wmo:42049:1,2008-10-02T01:30:00Z,28.3507,-96.0058,-2.0,26.35,11111222 
TABS,ioos:station:wmo:42049:1,2008-10-02T02:00:00Z,28.3507,-96.0058,-2.0,26.35,11111222 
TABS,ioos:station:wmo:42049:1,2008-10-02T02:30:00Z,28.3507,-96.0058,-2.0,26.28,11111222 
TABS,ioos:station:wmo:42049:1,2008-10-02T03:00:00Z,28.3507,-96.0058,-2.0,26.21,11111222 
TABS,ioos:station:wmo:42049:1,2008-10-02T03:30:00Z,28.3507,-96.0058,-2.0,26.17,11111222 
TABS,ioos:station:wmo:42049:1,2008-10-02T04:00:00Z,28.3507,-96.0058,-2.0,26.18,11111222 
TABS,ioos:station:wmo:42049:1,2008-10-02T04:30:00Z,28.3507,-96.0058,-2.0,26.17,11111222 
TABS,ioos:station:wmo:42049:1,2008-10-02T05:00:00Z,28.3507,-96.0058,-2.0,26.13,11111222 
TABS,ioos:station:wmo:42049:1,2008-10-02T05:30:00Z,28.3507,-96.0058,-2.0,26.09,11111222 
TABS,ioos:station:wmo:42049:1,2008-10-02T06:00:00Z,28.3507,-96.0058,-2.0,26.05,11111222 
TABS,ioos:station:wmo:42049:1,2008-10-02T06:30:00Z,28.3507,-96.0058,-2.0,26.02,11111222 
TABS,ioos:station:wmo:42049:1,2008-10-02T07:00:00Z,28.3507,-96.0058,-2.0,25.99,11111222 
TABS,ioos:station:wmo:42049:1,2008-10-02T07:30:00Z,28.3507,-96.0058,-2.0,25.96,11111222 
TABS,ioos:station:wmo:42049:1,2008-10-02T08:00:00Z,28.3507,-96.0058,-2.0,25.93,11111222 
TABS,ioos:station:wmo:42049:1,2008-10-02T08:30:00Z,28.3507,-96.0058,-2.0,25.9,11111222 
TABS,ioos:station:wmo:42049:1,2008-10-02T09:00:00Z,28.3507,-96.0058,-2.0,25.84,11111222 
TABS,ioos:station:wmo:42049:1,2008-10-02T09:30:00Z,28.3507,-96.0058,-2.0,25.82,11111222 
TABS,ioos:station:wmo:42049:1,2008-10-02T10:00:00Z,28.3507,-96.0058,-2.0,25.76,11111222 
TABS,ioos:station:wmo:42049:1,2008-10-02T10:30:00Z,28.3507,-96.0058,-2.0,25.75,11111222 
TABS,ioos:station:wmo:42049:1,2008-10-02T11:00:00Z,28.3507,-96.0058,-2.0,25.8,11111222 
TABS,ioos:station:wmo:42049:1,2008-10-02T11:30:00Z,28.3507,-96.0058,-2.0,25.87,11111222 
TABS,ioos:station:wmo:42049:1,2008-10-02T12:00:00Z,28.3507,-96.0058,-2.0,25.91,11111222 
TABS,ioos:station:wmo:42049:1,2008-10-02T12:30:00Z,28.3507,-96.0058,-2.0,25.93,11111222 
TABS,ioos:station:wmo:42049:1,2008-10-02T13:00:00Z,28.3507,-96.0058,-2.0,25.92,11111222 
TABS,ioos:station:wmo:42049:1,2008-10-02T13:30:00Z,28.3507,-96.0058,-2.0,25.92,11111222 
TABS,ioos:station:wmo:42049:1,2008-10-02T14:00:00Z,28.3507,-96.0058,-2.0,25.9,11111222 
TABS,ioos:station:wmo:42049:1,2008-10-02T14:30:00Z,28.3507,-96.0058,-2.0,25.89,11111222 
TABS,ioos:station:wmo:42049:1,2008-10-02T15:00:00Z,28.3507,-96.0058,-2.0,25.89,11111222 
TABS,ioos:station:wmo:42049:1,2008-10-02T15:30:00Z,28.3507,-96.0058,-2.0,25.87,11111222 
TABS,ioos:station:wmo:42049:1,2008-10-02T16:00:00Z,28.3507,-96.0058,-2.0,25.88,11111222 
TABS,ioos:station:wmo:42049:1,2008-10-02T16:30:00Z,28.3507,-96.0058,-2.0,25.95,11111222 
TABS,ioos:station:wmo:42049:1,2008-10-02T17:00:00Z,28.3507,-96.0058,-2.0,25.99,11111222 
TABS,ioos:station:wmo:42049:1,2008-10-02T17:30:00Z,28.3507,-96.0058,-2.0,26.09,11111222 
TABS,ioos:station:wmo:42049:1,2008-10-02T18:00:00Z,28.3507,-96.0058,-2.0,26.18,11111222 
TABS,ioos:station:wmo:42049:1,2008-10-02T18:30:00Z,28.3507,-96.0058,-2.0,26.26,11111222 
TABS,ioos:station:wmo:42049:1,2008-10-02T19:00:00Z,28.3507,-96.0058,-2.0,26.25,11111222 
TABS,ioos:station:wmo:42049:1,2008-10-02T19:30:00Z,28.3507,-96.0058,-2.0,26.25,11111222 
TABS,ioos:station:wmo:42049:1,2008-10-02T20:00:00Z,28.3507,-96.0058,-2.0,26.25,11111222 
TABS,ioos:station:wmo:42049:1,2008-10-02T20:30:00Z,28.3507,-96.0058,-2.0,26.23,11111222 
TABS,ioos:station:wmo:42049:1,2008-10-02T21:00:00Z,28.3507,-96.0058,-2.0,26.27,11111222 
TABS,ioos:station:wmo:42049:1,2008-10-02T21:30:00Z,28.3507,-96.0058,-2.0,26.28,11111222 
TABS,ioos:station:wmo:42049:1,2008-10-02T22:00:00Z,28.3507,-96.0058,-2.0,26.26,11111222 
TABS,ioos:station:wmo:42049:1,2008-10-02T22:30:00Z,28.3507,-96.0058,-2.0,26.27,11111222 
TABS,ioos:station:wmo:42049:1,2008-10-02T23:00:00Z,28.3507,-96.0058,-2.0,26.28,11111222 
TABS,ioos:station:wmo:42049:1,2008-10-02T23:30:00Z,28.3507,-96.0058,-2.0,26.28,11111222 
TABS,ioos:station:wmo:42049:1,2008-10-03T00:00:00Z,28.3507,-96.0058,-2.0,26.28,11111222 
TABS,ioos:station:wmo:42049:1,2008-10-03T00:30:00Z,28.3507,-96.0058,-2.0,26.26,11111222 
TABS,ioos:station:wmo:42049:1,2008-10-03T01:00:00Z,28.3507,-96.0058,-2.0,26.33,11111222 
TABS,ioos:station:wmo:42049:1,2008-10-03T01:30:00Z,28.3507,-96.0058,-2.0,26.33,11111222 
TABS,ioos:station:wmo:42049:1,2008-10-03T02:00:00Z,28.3507,-96.0058,-2.0,26.35,11111222 
TABS,ioos:station:wmo:42049:1,2008-10-03T02:30:00Z,28.3507,-96.0058,-2.0,26.33,11111222 
TABS,ioos:station:wmo:42049:1,2008-10-03T03:00:00Z,28.3507,-96.0058,-2.0,26.32,11111222 
TABS,ioos:station:wmo:42049:1,2008-10-03T03:30:00Z,28.3507,-96.0058,-2.0,26.3,11111222 
TABS,ioos:station:wmo:42049:1,2008-10-03T04:00:00Z,28.3507,-96.0058,-2.0,26.28,11111222 
TABS,ioos:station:wmo:42049:1,2008-10-03T04:30:00Z,28.3507,-96.0058,-2.0,26.22,11111222 
TABS,ioos:station:wmo:42049:1,2008-10-03T05:00:00Z,28.3507,-96.0058,-2.0,26.2,11111222 
TABS,ioos:station:wmo:42049:1,2008-10-03T05:30:00Z,28.3507,-96.0058,-2.0,26.13,11111222 
TABS,ioos:station:wmo:42049:1,2008-10-03T06:00:00Z,28.3507,-96.0058,-2.0,26.05,11111222 
TABS,ioos:station:wmo:42049:1,2008-10-03T06:30:00Z,28.3507,-96.0058,-2.0,26.0,11111222 
TABS,ioos:station:wmo:42049:1,2008-10-03T07:00:00Z,28.3507,-96.0058,-2.0,25.92,11111222 
TABS,ioos:station:wmo:42049:1,2008-10-03T07:30:00Z,28.3507,-96.0058,-2.0,25.91,11111222 
TABS,ioos:station:wmo:42049:1,2008-10-03T08:00:00Z,28.3507,-96.0058,-2.0,25.89,11111222 
TABS,ioos:station:wmo:42049:1,2008-10-03T08:30:00Z,28.3507,-96.0058,-2.0,25.82,11111222 
TABS,ioos:station:wmo:42049:1,2008-10-03T09:00:00Z,28.3507,-96.0058,-2.0,25.77,11111222 
TABS,ioos:station:wmo:42049:1,2008-10-03T09:30:00Z,28.3507,-96.0058,-2.0,25.73,11111222 
TABS,ioos:station:wmo:42049:1,2008-10-03T10:00:00Z,28.3507,-96.0058,-2.0,25.71,11111222 
TABS,ioos:station:wmo:42049:1,2008-10-03T10:30:00Z,28.3507,-96.0058,-2.0,25.68,11111222 
TABS,ioos:station:wmo:42049:1,2008-10-03T11:00:00Z,28.3507,-96.0058,-2.0,25.63,11111222 
TABS,ioos:station:wmo:42049:1,2008-10-03T11:30:00Z,28.3507,-96.0058,-2.0,25.61,11111222 
TABS,ioos:station:wmo:42049:1,2008-10-03T12:00:00Z,28.3507,-96.0058,-2.0,25.59,11111222 
TABS,ioos:station:wmo:42049:1,2008-10-03T12:30:00Z,28.3507,-96.0058,-2.0,25.61,11111222 
TABS,ioos:station:wmo:42049:1,2008-10-03T13:00:00Z,28.3507,-96.0058,-2.0,25.64,11111222 
TABS,ioos:station:wmo:42049:1,2008-10-03T13:30:00Z,28.3507,-96.0058,-2.0,25.65,11111222 
TABS,ioos:station:wmo:42049:1,2008-10-03T14:00:00Z,28.3507,-96.0058,-2.0,25.66,11111222 
TABS,ioos:station:wmo:42049:1,2008-10-03T14:30:00Z,28.3507,-96.0058,-2.0,25.66,11111222 
TABS,ioos:station:wmo:42049:1,2008-10-03T15:00:00Z,28.3507,-96.0058,-2.0,25.68,11111222 
TABS,ioos:station:wmo:42049:1,2008-10-03T15:30:00Z,28.3507,-96.0058,-2.0,25.72,11111222 
TABS,ioos:station:wmo:42049:1,2008-10-03T16:00:00Z,28.3507,-96.0058,-2.0,25.78,11111222 
TABS,ioos:station:wmo:42049:1,2008-10-03T16:30:00Z,28.3507,-96.0058,-2.0,25.83,11111222 
TABS,ioos:station:wmo:42049:1,2008-10-03T17:00:00Z,28.3507,-96.0058,-2.0,25.85,11111222 
TABS,ioos:station:wmo:42049:1,2008-10-03T17:30:00Z,28.3507,-96.0058,-2.0,25.88,11111222 
TABS,ioos:station:wmo:42049:1,2008-10-03T18:00:00Z,28.3507,-96.0058,-2.0,25.9,11111222 
TABS,ioos:station:wmo:42049:1,2008-10-03T18:30:00Z,28.3507,-96.0058,-2.0,25.93,11111222 
TABS,ioos:station:wmo:42049:1,2008-10-03T19:00:00Z,28.3507,-96.0058,-2.0,25.96,11111222 
TABS,ioos:station:wmo:42049:1,2008-10-03T19:30:00Z,28.3507,-96.0058,-2.0,26.01,11111222 
TABS,ioos:station:wmo:42049:1,2008-10-03T20:00:00Z,28.3507,-96.0058,-2.0,26.03,11111222 
TABS,ioos:station:wmo:42049:1,2008-10-03T20:30:00Z,28.3507,-96.0058,-2.0,26.09,11111222 
TABS,ioos:station:wmo:42049:1,2008-10-03T21:00:00Z,28.3507,-96.0058,-2.0,26.13,11111222 
TABS,ioos:station:wmo:42049:1,2008-10-03T21:30:00Z,28.3507,-96.0058,-2.0,26.17,11111222 
TABS,ioos:station:wmo:42049:1,2008-10-03T22:00:00Z,28.3507,-96.0058,-2.0,26.19,11111222 
TABS,ioos:station:wmo:42049:1,2008-10-03T22:30:00Z,28.3507,-96.0058,-2.0,26.21,11111222 
TABS,ioos:station:wmo:42049:1,2008-10-03T23:00:00Z,28.3507,-96.0058,-2.0,26.2,11111222 
TABS,ioos:station:wmo:42049:1,2008-10-03T23:30:00Z,28.3507,-96.0058,-2.0,26.14,11111222 
TABS,ioos:station:wmo:42049:1,2008-10-04T00:00:00Z,28.3507,-96.0058,-2.0,26.12,11111222 
TABS,ioos:station:wmo:42049:1,2008-10-04T00:30:00Z,28.3507,-96.0058,-2.0,26.09,11111222 
TABS,ioos:station:wmo:42049:1,2008-10-04T01:00:00Z,28.3507,-96.0058,-2.0,26.09,11111222 
TABS,ioos:station:wmo:42049:1,2008-10-04T01:30:00Z,28.3507,-96.0058,-2.0,26.09,11111222 
TABS,ioos:station:wmo:42049:1,2008-10-04T02:00:00Z,28.3507,-96.0058,-2.0,26.07,11111222 
TABS,ioos:station:wmo:42049:1,2008-10-04T02:30:00Z,28.3507,-96.0058,-2.0,26.06,11111222 
TABS,ioos:station:wmo:42049:1,2008-10-04T03:00:00Z,28.3507,-96.0058,-2.0,26.04,11111222 
TABS,ioos:station:wmo:42049:1,2008-10-04T03:30:00Z,28.3507,-96.0058,-2.0,26.01,11111222 
TABS,ioos:station:wmo:42049:1,2008-10-04T04:00:00Z,28.3507,-96.0058,-2.0,25.99,11111222 
TABS,ioos:station:wmo:42049:1,2008-10-04T04:30:00Z,28.3507,-96.0058,-2.0,26.0,11111222 
TABS,ioos:station:wmo:42049:1,2008-10-04T05:00:00Z,28.3507,-96.0058,-2.0,25.98,11111222 
TABS,ioos:station:wmo:42049:1,2008-10-04T05:30:00Z,28.3507,-96.0058,-2.0,25.95,11111222 
TABS,ioos:station:wmo:42049:1,2008-10-04T06:00:00Z,28.3507,-96.0058,-2.0,25.92,11111222 
TABS,ioos:station:wmo:42049:1,2008-10-04T06:30:00Z,28.3507,-96.0058,-2.0,25.89,11111222 
TABS,ioos:station:wmo:42049:1,2008-10-04T07:00:00Z,28.3507,-96.0058,-2.0,25.85,11111222 
TABS,ioos:station:wmo:42049:1,2008-10-04T07:30:00Z,28.3507,-96.0058,-2.0,25.84,11111222 
TABS,ioos:station:wmo:42049:1,2008-10-04T08:00:00Z,28.3507,-96.0058,-2.0,25.84,11111222 
TABS,ioos:station:wmo:42049:1,2008-10-04T08:30:00Z,28.3507,-96.0058,-2.0,25.85,11111222 
TABS,ioos:station:wmo:42049:1,2008-10-04T09:00:00Z,28.3507,-96.0058,-2.0,25.86,11111222 
TABS,ioos:station:wmo:42049:1,2008-10-04T09:30:00Z,28.3507,-96.0058,-2.0,25.85,11111222 
TABS,ioos:station:wmo:42049:1,2008-10-04T10:00:00Z,28.3507,-96.0058,-2.0,25.79,11111222 
TABS,ioos:station:wmo:42049:1,2008-10-04T10:30:00Z,28.3507,-96.0058,-2.0,25.8,11111222 
TABS,ioos:station:wmo:42049:1,2008-10-04T11:00:00Z,28.3507,-96.0058,-2.0,25.75,11111222 
TABS,ioos:station:wmo:42049:1,2008-10-04T11:30:00Z,28.3507,-96.0058,-2.0,25.76,11111222 
TABS,ioos:station:wmo:42049:1,2008-10-04T12:00:00Z,28.3507,-96.0058,-2.0,25.75,11111222 
TABS,ioos:station:wmo:42049:1,2008-10-04T12:30:00Z,28.3507,-96.0058,-2.0,25.72,11111222 
TABS,ioos:station:wmo:42049:1,2008-10-04T13:00:00Z,28.3507,-96.0058,-2.0,25.67,11111222 
TABS,ioos:station:wmo:42049:1,2008-10-04T13:30:00Z,28.3507,-96.0058,-2.0,25.64,11111222 
TABS,ioos:station:wmo:42049:1,2008-10-04T14:00:00Z,28.3507,-96.0058,-2.0,25.66,11111222 
TABS,ioos:station:wmo:42049:1,2008-10-04T14:30:00Z,28.3507,-96.0058,-2.0,25.69,11111222 
TABS,ioos:station:wmo:42049:1,2008-10-04T15:00:00Z,28.3507,-96.0058,-2.0,25.72,11111222 
TABS,ioos:station:wmo:42049:1,2008-10-04T15:30:00Z,28.3507,-96.0058,-2.0,25.76,11111222 
TABS,ioos:station:wmo:42049:1,2008-10-04T16:00:00Z,28.3507,-96.0058,-2.0,25.81,11111222 
TABS,ioos:station:wmo:42049:1,2008-10-04T16:30:00Z,28.3507,-96.0058,-2.0,25.76,11111222 
TABS,ioos:station:wmo:42049:1,2008-10-04T17:00:00Z,28.3507,-96.0058,-2.0,25.72,11111222 
TABS,ioos:station:wmo:42049:1,2008-10-04T17:30:00Z,28.3507,-96.0058,-2.0,25.79,11111222 
TABS,ioos:station:wmo:42049:1,2008-10-04T18:00:00Z,28.3507,-96.0058,-2.0,25.84,11111222 
TABS,ioos:station:wmo:42049:1,2008-10-04T18:30:00Z,28.3507,-96.0058,-2.0,25.87,11111222 
TABS,ioos:station:wmo:42049:1,2008-10-04T19:00:00Z,28.3507,-96.0058,-2.0,25.94,11111222 
TABS,ioos:station:wmo:42049:1,2008-10-04T19:30:00Z,28.3507,-96.0058,-2.0,26.02,11111222 
TABS,ioos:station:wmo:42049:1,2008-10-04T20:00:00Z,28.3507,-96.0058,-2.0,26.07,11111222 
TABS,ioos:station:wmo:42049:1,2008-10-04T20:30:00Z,28.3507,-96.0058,-2.0,26.08,11111222 
TABS,ioos:station:wmo:42049:1,2008-10-04T21:00:00Z,28.3507,-96.0058,-2.0,26.1,11111222 
TABS,ioos:station:wmo:42049:1,2008-10-04T21:30:00Z,28.3507,-96.0058,-2.0,26.11,11111222 
TABS,ioos:station:wmo:42049:1,2008-10-04T22:00:00Z,28.3507,-96.0058,-2.0,26.1,11111222 
TABS,ioos:station:wmo:42049:1,2008-10-04T22:30:00Z,28.3507,-96.0058,-2.0,26.1,11111222 
TABS,ioos:station:wmo:42049:1,2008-10-04T23:00:00Z,28.3507,-96.0058,-2.0,26.08,11111222 
TABS,ioos:station:wmo:42049:1,2008-10-04T23:30:00Z,28.3507,-96.0058,-2.0,26.05,11111222 
TABS,ioos:station:wmo:42049:1,2008-10-05T00:00:00Z,28.3507,-96.0058,-2.0,26.01,11111222 
TABS,ioos:station:wmo:42049:1,2008-10-05T00:30:00Z,28.3507,-96.0058,-2.0,25.98,11111222 
TABS,ioos:station:wmo:42049:1,2008-10-05T01:00:00Z,28.3507,-96.0058,-2.0,25.94,11111222 
TABS,ioos:station:wmo:42049:1,2008-10-05T01:30:00Z,28.3507,-96.0058,-2.0,25.9,11111222 
TABS,ioos:station:wmo:42049:1,2008-10-05T02:00:00Z,28.3507,-96.0058,-2.0,25.84,11111222 
TABS,ioos:station:wmo:42049:1,2008-10-05T02:30:00Z,28.3507,-96.0058,-2.0,25.82,11111222 
TABS,ioos:station:wmo:42049:1,2008-10-05T03:00:00Z,28.3507,-96.0058,-2.0,25.77,11111222 
TABS,ioos:station:wmo:42049:1,2008-10-05T03:30:00Z,28.3507,-96.0058,-2.0,25.74,11111222 
TABS,ioos:station:wmo:42049:1,2008-10-05T04:00:00Z,28.3507,-96.0058,-2.0,25.71,11111222 
TABS,ioos:station:wmo:42049:1,2008-10-05T04:30:00Z,28.3507,-96.0058,-2.0,25.69,11111222 
TABS,ioos:station:wmo:42049:1,2008-10-05T05:00:00Z,28.3507,-96.0058,-2.0,25.67,11111222 
TABS,ioos:station:wmo:42049:1,2008-10-05T05:30:00Z,28.3507,-96.0058,-2.0,25.65,11111222 
TABS,ioos:station:wmo:42049:1,2008-10-05T06:00:00Z,28.3507,-96.0058,-2.0,25.65,11111222 
TABS,ioos:station:wmo:42049:1,2008-10-05T06:30:00Z,28.3507,-96.0058,-2.0,25.65,11111222 
TABS,ioos:station:wmo:42049:1,2008-10-05T07:00:00Z,28.3507,-96.0058,-2.0,25.65,11111222 
TABS,ioos:station:wmo:42049:1,2008-10-05T07:30:00Z,28.3507,-96.0058,-2.0,25.65,11111222 
TABS,ioos:station:wmo:42049:1,2008-10-09T13:30:00Z,28.3507,-96.0058,-2.0,25.51,11111222 
TABS,ioos:station:wmo:42049:1,2008-10-09T14:00:00Z,28.3507,-96.0058,-2.0,25.39,11111222 
TABS,ioos:station:wmo:42049:1,2008-10-09T14:30:00Z,28.3507,-96.0058,-2.0,25.38,11111222 
TABS,ioos:station:wmo:42049:1,2008-10-09T15:00:00Z,28.3507,-96.0058,-2.0,25.37,11111222 
TABS,ioos:station:wmo:42049:1,2008-10-09T15:30:00Z,28.3507,-96.0058,-2.0,25.39,11111222 
TABS,ioos:station:wmo:42049:1,2008-10-09T16:00:00Z,28.3507,-96.0058,-2.0,25.42,11111222 
TABS,ioos:station:wmo:42049:1,2008-10-09T16:30:00Z,28.3507,-96.0058,-2.0,25.5,11111222 
TABS,ioos:station:wmo:42049:1,2008-10-09T17:00:00Z,28.3507,-96.0058,-2.0,25.55,11111222 
TABS,ioos:station:wmo:42049:1,2008-10-09T17:30:00Z,28.3507,-96.0058,-2.0,25.55,11111222 
TABS,ioos:station:wmo:42049:1,2008-10-09T18:00:00Z,28.3507,-96.0058,-2.0,25.59,11111222 
TABS,ioos:station:wmo:42049:1,2008-10-09T18:30:00Z,28.3507,-96.0058,-2.0,25.67,11111222 
TABS,ioos:station:wmo:42049:1,2008-10-09T19:00:00Z,28.3507,-96.0058,-2.0,25.74,11111222 
TABS,ioos:station:wmo:42049:1,2008-10-09T19:30:00Z,28.3507,-96.0058,-2.0,25.74,11111222 
TABS,ioos:station:wmo:42049:1,2008-10-09T20:00:00Z,28.3507,-96.0058,-2.0,25.76,11111222 
TABS,ioos:station:wmo:42049:1,2008-10-09T20:30:00Z,28.3507,-96.0058,-2.0,25.68,11111222 
TABS,ioos:station:wmo:42049:1,2008-10-09T21:00:00Z,28.3507,-96.0058,-2.0,25.69,11111222 
TABS,ioos:station:wmo:42049:1,2008-10-09T21:30:00Z,28.3507,-96.0058,-2.0,25.67,11111222 
TABS,ioos:station:wmo:42049:1,2008-10-09T22:00:00Z,28.3507,-96.0058,-2.0,25.67,11111222 
TABS,ioos:station:wmo:42049:1,2008-10-09T22:30:00Z,28.3507,-96.0058,-2.0,25.83,11111222 
TABS,ioos:station:wmo:42049:1,2008-10-09T23:00:00Z,28.3507,-96.0058,-2.0,25.74,11111222 
TABS,ioos:station:wmo:42049:1,2008-10-09T23:30:00Z,28.3507,-96.0058,-2.0,25.69,11111222 
TABS,ioos:station:wmo:42049:1,2008-10-10T00:00:00Z,28.3507,-96.0058,-2.0,25.7,11111222 
TABS,ioos:station:wmo:42049:1,2008-10-10T00:30:00Z,28.3507,-96.0058,-2.0,25.65,11111222 
TABS,ioos:station:wmo:42049:1,2008-10-10T01:00:00Z,28.3507,-96.0058,-2.0,25.59,11111222 
TABS,ioos:station:wmo:42049:1,2008-10-10T01:30:00Z,28.3507,-96.0058,-2.0,25.57,11111222 
TABS,ioos:station:wmo:42049:1,2008-10-10T02:00:00Z,28.3507,-96.0058,-2.0,25.55,11111222 
TABS,ioos:station:wmo:42049:1,2008-10-10T02:30:00Z,28.3507,-96.0058,-2.0,25.53,11111222 
TABS,ioos:station:wmo:42049:1,2008-10-10T03:00:00Z,28.3507,-96.0058,-2.0,25.5,11111222 
TABS,ioos:station:wmo:42049:1,2008-10-10T03:30:00Z,28.3507,-96.0058,-2.0,25.5,11111222 
TABS,ioos:station:wmo:42049:1,2008-10-10T04:00:00Z,28.3507,-96.0058,-2.0,25.5,11111222 
TABS,ioos:station:wmo:42049:1,2008-10-10T04:30:00Z,28.3507,-96.0058,-2.0,25.5,11111222 
TABS,ioos:station:wmo:42049:1,2008-10-10T05:00:00Z,28.3507,-96.0058,-2.0,25.48,11111222 
TABS,ioos:station:wmo:42049:1,2008-10-10T05:30:00Z,28.3507,-96.0058,-2.0,25.51,11111222 
TABS,ioos:station:wmo:42049:1,2008-10-10T06:00:00Z,28.3507,-96.0058,-2.0,25.55,11111222 
TABS,ioos:station:wmo:42049:1,2008-10-10T06:30:00Z,28.3507,-96.0058,-2.0,25.58,11111222 
TABS,ioos:station:wmo:42049:1,2008-10-10T07:00:00Z,28.3507,-96.0058,-2.0,25.57,11111222 
TABS,ioos:station:wmo:42049:1,2008-10-10T07:30:00Z,28.3507,-96.0058,-2.0,25.56,11111222 
TABS,ioos:station:wmo:42049:1,2008-10-10T08:00:00Z,28.3507,-96.0058,-2.0,25.55,11111222 
TABS,ioos:station:wmo:42049:1,2008-10-10T08:30:00Z,28.3507,-96.0058,-2.0,25.53,11111222 
TABS,ioos:station:wmo:42049:1,2008-10-10T09:00:00Z,28.3507,-96.0058,-2.0,25.52,11111222 
TABS,ioos:station:wmo:42049:1,2008-10-10T09:30:00Z,28.3507,-96.0058,-2.0,25.5,11111222 
TABS,ioos:station:wmo:42049:1,2008-10-10T10:00:00Z,28.3507,-96.0058,-2.0,25.49,11111222 
TABS,ioos:station:wmo:42049:1,2008-10-10T10:30:00Z,28.3507,-96.0058,-2.0,25.52,11111222 
TABS,ioos:station:wmo:42049:1,2008-10-10T11:00:00Z,28.3507,-96.0058,-2.0,25.53,11111222 
TABS,ioos:station:wmo:42049:1,2008-10-10T11:30:00Z,28.3507,-96.0058,-2.0,25.66,11111222 
TABS,ioos:station:wmo:42049:1,2008-10-10T12:00:00Z,28.3507,-96.0058,-2.0,25.69,11111222 
TABS,ioos:station:wmo:42049:1,2008-10-10T12:30:00Z,28.3507,-96.0058,-2.0,25.68,11111222 
TABS,ioos:station:wmo:42049:1,2008-10-10T13:00:00Z,28.3507,-96.0058,-2.0,25.68,11111222 
TABS,ioos:station:wmo:42049:1,2008-10-10T13:30:00Z,28.3507,-96.0058,-2.0,25.64,11111222 
TABS,ioos:station:wmo:42049:1,2008-10-10T14:00:00Z,28.3507,-96.0058,-2.0,25.61,11111222 
TABS,ioos:station:wmo:42049:1,2008-10-10T14:30:00Z,28.3507,-96.0058,-2.0,25.59,11111222 
TABS,ioos:station:wmo:42049:1,2008-10-10T15:00:00Z,28.3507,-96.0058,-2.0,25.58,11111222 
TABS,ioos:station:wmo:42049:1,2008-10-10T15:30:00Z,28.3507,-96.0058,-2.0,25.58,11111222 
TABS,ioos:station:wmo:42049:1,2008-10-10T16:00:00Z,28.3507,-96.0058,-2.0,25.58,11111222 
TABS,ioos:station:wmo:42049:1,2008-10-10T16:30:00Z,28.3507,-96.0058,-2.0,25.56,11111222 
TABS,ioos:station:wmo:42049:1,2008-10-10T17:00:00Z,28.3507,-96.0058,-2.0,25.59,11111222 
TABS,ioos:station:wmo:42049:1,2008-10-10T17:30:00Z,28.3507,-96.0058,-2.0,25.6,11111222 
TABS,ioos:station:wmo:42049:1,2008-10-10T18:00:00Z,28.3507,-96.0058,-2.0,25.64,11111222 
TABS,ioos:station:wmo:42049:1,2008-10-10T18:30:00Z,28.3507,-96.0058,-2.0,25.67,11111222 
TABS,ioos:station:wmo:42049:1,2008-10-10T19:00:00Z,28.3507,-96.0058,-2.0,25.7,11111222 
TABS,ioos:station:wmo:42049:1,2008-10-10T19:30:00Z,28.3507,-96.0058,-2.0,25.72,11111222 